Location: Unspecified
(42.9300°N, 71.1866°W)
Time: 00:58:36
(UTC-05:00)

GENESIS II - Visible Passes

Search period start: 27 February 2015 00:00
Search period end: 09 March 2015 01:00
Orbit: 510 x 546 km, 64.5° (Epoch: 25 February)

Date Brightness Start Highest point End Pass type
(mag) Time Alt. Az. Time Alt. Az. Time Alt. Az.
27 Feb 7.4 03:19:05 11° NNE 03:19:05 11° NNE 03:19:16 10° NNE visible
27 Feb 6.5 04:54:20 12° NNW 04:54:20 12° NNW 04:55:28 10° NNW visible
28 Feb 6.7 04:42:59 11° NNW 04:42:59 11° NNW 04:43:23 10° NNW visible
